Location: Old Broadwell Mill Observatory
(33.8015°N, 85.8137°W)
Time: 05:17:00
(UTC-05:00)

Daily predictions for brighter satellites

Satellite Brightness Start Highest point End
(mag) Time Altitude Azimuth Time Altitude Azimuth Time Altitude Azimuth
ATLAS CENTAUR R/B 4.4 00:10:43 10° NNW 00:10:49 11° NNW 00:10:49 11° NNW
SL-16 R/B 3.4 00:22:01 10° NNW 00:25:26 37° NW 00:25:26 37° NW
CZ-2C R/B 4.4 00:39:13 37° NW 00:39:13 37° NW 00:42:42 10° NNW
SeaSat 1 4.2 00:53:41 26° NW 00:53:41 26° NW 00:55:53 10° NNW
Lacrosse 5 4.1 00:56:51 19° NW 00:57:28 19° NW 01:01:03 10° N
Cosmos 2219 4.3 01:04:29 40° NNE 01:04:29 40° NNE 01:08:02 10° NNE
Cosmos 2360 Rocket 3.4 01:01:14 10° NNW 01:04:36 37° NNW 01:04:36 37° NNW
COSMOS 2428 3.7 01:05:25 10° N 01:09:55 43° NNE 01:09:55 43° NNE
Cosmos 2173 Rocket 4.5 01:05:21 10° N 01:09:56 54° NNW 01:09:56 54° NNW
Cosmos 2322 Rocket 4.5 01:14:47 10° NW 01:16:01 14° WNW 01:16:01 14° WNW
Lacrosse 5 rocket 4.5 01:15:42 10° NW 01:15:49 11° NW 01:15:49 11° NW
USA 234 4.0 01:21:19 33° E 01:23:55 49° NE 01:30:11 10° NNW
ATLAS 3B CENTAUR R/B 4.4 00:56:13 10° WSW 01:24:50 68° S 01:34:40 10° E
ATLAS 2AS CENTAUR R/B 3.4 01:33:39 10° NNW 01:41:29 58° NE 01:43:52 42° ESE
Cosmos 2333 Rocket 3.2 01:37:50 10° N 01:43:13 41° ENE 01:43:19 41° ENE
Cosmos 2297 Rocket 3.3 01:45:42 36° ENE 01:45:42 36° ENE 01:49:46 10° NE
NOSS 3-3 (A) 4.2 01:45:42 66° N 01:45:42 66° N 01:51:25 10° NNE
NOSS 3-3 (C) 4.2 01:45:49 66° N 01:45:49 66° N 01:51:31 10° NNE
Cosmos 2219 Rocket 2.8 01:44:28 10° NNW 01:49:22 55° NE 01:49:22 55° NE
VEP-3 4.5 01:25:11 10° W 02:02:21 25° SE 02:04:29 10° ESE
SL-16 R/B 4.5 01:58:18 11° ESE 02:02:45 23° ENE 02:07:23 10° NNE
NPP 4.3 02:00:47 10° NNE 02:05:22 47° ENE 02:05:22 47° ENE
CZ-3B DEB 4.3 02:03:30 47° S 02:07:47 63° ESE 02:22:07 10° NE
Cosmos 2237 Rocket 2.9 02:04:26 10° N 02:09:53 48° ENE 02:10:33 45° E
SL-16 R/B 4.5 02:07:04 10° N 02:11:14 20° ENE 02:15:22 10° ESE
Meteor 2-10 4.5 02:11:08 10° N 02:15:17 58° N 02:15:17 58° N
CBERS-1 4.4 02:15:52 10° NNE 02:20:18 58° ENE 02:20:18 58° ENE
Cosmos 2227 Rocket 2.4 02:22:51 63° NNW 02:22:51 63° NNW 02:27:55 10° NNE
Resurs 1-4 Rocket 3.4 02:18:28 10° NE 02:23:07 30° E 02:23:39 30° ESE
ARIANE 5 R/B 3.8 02:23:39 10° NE 02:28:02 29° E 02:28:27 29° ESE
Cosmos 2058 4.3 02:32:09 35° N 02:32:09 35° N 02:34:35 10° N
Cosmos 2233 Rocket 4.2 02:30:44 10° NNW 02:36:35 56° W 02:36:35 56° W
CZ-2D R/B 2.6 02:39:39 10° NNE 02:44:42 48° E 02:45:23 45° SE
Cosmos 1072 Rocket 4.4 02:44:32 10° N 02:50:43 86° E 02:52:02 58° SSE
Cosmos 1666 Rocket 4.4 02:50:56 43° E 02:51:04 44° E 02:55:17 10° NNE
NOSS 0 Rocket 4.2 02:47:01 10° NNW 02:52:26 51° W 02:52:26 51° W
Cosmos 2082 4.3 02:53:37 42° WNW 02:53:46 42° WNW 02:59:04 10° N
SL-08 R/B 3.5 02:57:02 65° WNW 02:57:02 65° WNW 03:01:29 10° NNW
Cosmos 1455 3.1 02:53:12 10° N 02:56:14 49° NNE 02:56:14 49° NNE
IRS-1C 4.0 02:54:22 10° N 02:59:40 70° WNW 02:59:59 68° W
Lacrosse 4 Rocket 1.7 03:02:51 64° NE 03:02:51 64° NE 03:06:30 10° NNE
APEX 4.3 03:01:35 61° SW 03:02:47 83° WNW 03:09:58 10° NNE
AQUA 4.3 03:01:37 10° N 03:05:53 46° WNW 03:05:53 46° WNW
USA 234 3.9 03:08:35 35° W 03:08:35 35° W 03:13:00 10° WNW
Spot 4 Rocket 3.9 03:01:46 10° NNE 03:06:56 87° WNW 03:07:35 69° SSW
Cosmos 1805 Rocket 3.6 03:07:50 68° NW 03:07:50 68° NW 03:11:55 10° N
Cosmos 1626 4.0 03:09:45 23° NW 03:09:45 23° NW 03:11:34 10° NNW
Cosmos 1464 Rocket 3.8 03:04:42 10° N 03:10:48 71° W 03:12:16 52° SSW
Cosmos 2208 Rocket 3.9 03:07:17 10° NNW 03:12:30 86° WSW 03:13:46 53° S
Cosmos 1241 Rocket 4.4 03:10:19 10° NNW 03:16:45 86° WSW 03:22:27 13° SSE
ADEOS Rocket 3.6 03:09:45 10° N 03:17:18 72° WNW 03:20:34 39° SSW
DELTA 2 R/B (1) 4.1 03:15:06 30° WNW 03:17:38 53° NNW 03:23:05 10° ENE
IRS-1D 3.6 03:16:59 10° N 03:22:17 69° WNW 03:23:26 52° SW
Cosmos 1869 3.4 03:20:31 10° N 03:24:32 73° E 03:25:10 59° SE
Cosmos 2333 Rocket 3.8 03:22:51 10° NW 03:25:16 19° WNW 03:25:16 19° WNW
Cosmos 2297 Rocket 3.6 03:27:30 22° WNW 03:28:39 23° WNW 03:33:06 10° N
ATLAS 2AS CENTAUR R/B 3.9 03:25:44 10° NW 03:31:13 26° W 03:31:13 26° W
NOSS 3-4 (A) 4.3 03:26:07 10° NNW 03:33:13 65° ENE 03:40:45 10° SE
CZ-2D R/B 3.8 03:29:14 10° NNE 03:33:16 60° E 03:34:35 39° SSE
NOSS 3-4 (C) 4.3 03:26:13 10° NNW 03:33:19 64° ENE 03:40:50 10° SE
Cosmos 2219 Rocket 4.3 03:30:22 10° WNW 03:31:02 12° WNW 03:31:02 12° WNW
Okean O Rocket 4.2 03:31:45 10° ENE 03:34:17 15° E 03:36:48 10° SE
Sich 1 3.2 03:34:32 51° W 03:34:53 53° W 03:39:10 10° N
Cosmos 1633 Rocket 3.0 03:34:27 57° SW 03:35:03 65° W 03:39:23 10° N
Cosmos 1470 Rocket 4.0 03:33:52 31° SSE 03:35:41 56° E 03:39:55 10° NNE
SL-16 R/B 2.7 03:43:23 31° SSW 03:45:56 49° W 03:51:55 10° NNW
Cosmos 332 Rocket 4.2 03:44:06 10° N 03:48:55 64° ENE 03:53:44 10° SSE
UNKNOWN OBJECT B 2.8 03:47:51 10° N 03:51:48 62° WNW 03:52:49 44° SW
ATLAS 5 CENTAUR R/B 2.4 03:49:34 25° S 03:51:55 47° ESE 03:56:35 10° NE
MOS 1 Rocket 3.5 03:46:45 10° N 03:52:01 85° WNW 03:55:15 25° SSW
Abrixas rocket 4.3 03:51:59 17° SSE 03:52:35 18° SE 03:54:55 10° E
Cosmos 2237 Rocket 3.7 03:49:43 10° WNW 03:52:19 17° W 03:52:19 17° W
Cosmos 220 Rocket 4.0 03:52:17 35° SSW 03:54:08 90° ESE 03:58:37 10° NNE
Cosmos 2346 Rocket 4.4 03:50:58 25° SSW 03:54:51 74° W 04:01:07 10° N
SL-16 R/B 2.4 03:50:08 10° NNW 03:55:34 48° WSW 03:59:20 19° S
ADEOS 4.4 03:53:23 10° N 03:58:02 34° WNW 03:59:53 26° WSW
SL-24 R/B 3.8 03:55:30 10° NNE 03:59:15 73° E 04:01:08 27° S
Cosmos 2227 4.3 03:56:30 29° SW 03:59:23 61° WNW 04:05:05 10° NNE
Resurs 1-4 Rocket 3.2 03:58:21 10° NNW 04:02:48 28° WNW 04:04:43 22° WSW
ARIANE 5 R/B 3.7 04:02:51 10° NNW 04:06:59 26° WNW 04:08:48 21° W
ADEOS II 2.9 04:04:19 10° NNE 04:09:24 48° E 04:14:27 10° S
ATLAS 3B CENTAUR R/B 3.2 03:57:21 10° W 04:10:33 49° SSW 04:15:34 10° SE
Meteor 2-3 Rocket 4.2 04:07:52 10° S 04:13:27 62° E 04:19:06 10° NNE
BREEZE M DEB (TANK) 2.0 04:15:57 30° WSW 04:17:14 71° NW 04:19:26 10° NE
MOZ.5/SAFIR/RUBIN 5/SL-8 4.2 04:18:26 15° SSW 04:22:07 43° W 04:26:40 10° NNW
CZ-2D R/B 3.8 04:20:59 10° NNW 04:24:20 18° WNW 04:26:43 13° W
Cosmos 1867 3.6 04:20:41 16° SSW 04:25:01 85° ESE 04:30:30 10° NNE
Cosmos 2263 Rocket 2.4 04:20:19 11° SSW 04:25:38 72° ESE 04:31:11 10° NNE
Cosmos 2242 Rocket 4.3 04:21:55 10° NNW 04:26:00 35° W 04:29:08 16° SSW
Meteosat 1 Rocket2 3.5 04:23:52 21° SW 04:26:09 36° S 04:29:35 10° ESE
Cosmos 1892 2.6 04:24:53 12° S 04:28:24 88° W 04:32:14 10° N
OAO 3 Rocket 3.2 04:25:10 18° WSW 04:28:49 77° SSE 04:33:45 10° E
USA 161 2.1 04:30:02 21° WNW 04:30:02 21° WNW 04:31:11 10° NW
Cosmos 1933 3.6 04:25:53 10° NNW 04:29:50 49° W 04:33:47 10° SSW
CZ-3 R/B 3.7 03:49:21 10° W 04:33:12 68° SSW 04:42:17 10° ESE
Meteor 2-10 Rocket 3.5 04:31:15 10° NNW 04:36:11 60° W 04:41:11 10° S
Cosmos 1862 Rocket 4.0 04:33:20 10° NNW 04:37:24 41° W 04:41:26 10° SSW
In-Cosmos 22 Rocket 4.5 04:33:28 13° SSW 04:37:52 44° WNW 04:42:56 10° N
GPS 2-04 Rocket1 3.9 04:36:03 15° WSW 04:38:22 24° SSW 04:41:49 10° SSE
Cosmos 1400 Rocket 3.6 04:38:33 15° SW 04:41:16 33° WNW 04:44:52 10° NNW
PAYLOAD B 4.3 04:36:41 10° NNE 04:42:12 85° ESE 04:47:42 10° SSW
Cosmos 841 Rocket 3.5 04:38:07 10° NNW 04:43:20 64° WSW 04:48:31 10° S
USA 102 4.4 04:42:44 10° N 04:44:21 14° NW 04:45:03 12° WNW
Landsat 4 3.8 04:45:41 10° S 04:49:23 55° W 04:53:08 10° NNW
Cosmos 371 Rocket 4.0 04:49:28 10° NW 04:53:44 32° W 04:57:58 10° SSW
Meteor 1-26 Rocket 4.4 04:51:01 10° NNW 04:56:33 55° W 05:01:59 10° S
Cosmos 1782 4.2 04:53:02 10° N 04:56:51 42° E 05:00:40 10° SSE
EO 1 Del DPAF 4.1 04:54:12 10° SSE 04:57:56 54° ENE 05:01:41 10° N
BREEZE-M DEB (TANK) 4.2 04:57:13 10° SSE 04:59:08 18° ESE 05:02:21 10° ENE
Nadezhda 4 Rocket 4.1 04:56:02 10° S 05:02:16 87° W 05:08:36 10° N
Cosmos 1703 Rocket 3.6 04:59:09 10° NNW 05:03:29 61° W 05:07:50 10° S
CZ-3A R/B 3.2 04:59:47 10° NW 05:04:06 79° NE 05:20:37 10° SE
DELTA 2 R/B (1) 4.5 04:59:18 10° WNW 05:04:41 49° N 05:10:02 10° E
Cosmos 1825 2.7 05:03:52 10° S 05:07:37 64° E 05:11:23 10° NNE
Cosmos 2285 Rocket 4.2 05:01:50 10° NNW 05:07:51 49° WSW 05:13:53 10° S
RESURS DK-1 2.6 05:05:56 10° NNW 05:10:06 77° ENE 05:14:14 10° SSE
Cosmos 1408 2.8 05:06:49 10° S 05:10:27 75° E 05:14:06 10° N
Okean O Rocket 2.3 05:06:45 10° N 05:10:45 36° WNW 05:14:43 10° SW
